| time (UTC) | temp F | wind direction | speed MPH | gust MPH | rain 1hr in | rain 24hr in | rain mn in | humidity % | barometer mb |
| 20260504214515 | 51 | 321 | 1.0 | 0.0 | 0.00 | 0.00 | 0.05 | 67 | 1009.0 |
| 20260504213112 | 51 | 268 | 3.0 | 0.0 | 0.00 | 0.00 | 0.05 | 69 | 1008.9 |
| 20260504211533 | 49 | 300 | 3.0 | 0.0 | 0.00 | 0.00 | 0.05 | 71 | 1009.0 |
| 20260504210106 | 49 | 274 | 3.0 | 0.0 | 0.00 | 0.00 | 0.05 | 71 | 1008.6 |
| 20260504204604 | 49 | 289 | 2.0 | 0.0 | 0.00 | 0.00 | 0.05 | 73 | 1008.2 |
| 20260504203029 | 48 | 297 | 2.0 | 0.0 | 0.00 | 0.00 | 0.05 | 76 | 1008.1 |
| 20260504201514 | 47 | 330 | 2.0 | 0.0 | 0.00 | 0.00 | 0.05 | 78 | 1008.0 |
| 20260504200004 | 47 | 279 | 1.0 | 0.0 | 0.00 | 0.00 | 0.05 | 78 | 1007.8 |
| 20260504194517 | 46 | 279 | 0.0 | 0.0 | 0.00 | 0.00 | 0.05 | 78 | 1007.6 |
| 20260504193027 | 47 | 269 | 0.0 | 0.0 | 0.00 | 0.00 | 0.05 | 76 | 1007.6 |
| 20260504191528 | 47 | 276 | 0.0 | 0.0 | 0.00 | 0.00 | 0.05 | 75 | 1007.3 |
| 20260504190029 | 47 | 358 | 2.0 | 0.0 | 0.00 | 0.00 | 0.04 | 74 | 1007.3 |
| 20260504184507 | 48 | 262 | 4.0 | 0.0 | 0.00 | 0.00 | 0.03 | 70 | 1006.4 |
| 20260504183005 | 49 | 296 | 4.0 | 0.0 | 0.00 | 0.00 | 0.02 | 65 | 1005.9 |
| 20260504180034 | 49 | 282 | 1.0 | 0.0 | 0.00 | 0.00 | 0.01 | 67 | 1005.7 |
| 20260504174508 | 49 | 274 | 1.0 | 0.0 | 0.00 | 0.00 | 0.01 | 67 | 1005.4 |
| 20260504173026 | 50 | 274 | 3.0 | 0.0 | 0.00 | 0.00 | 0.01 | 64 | 1004.9 |
| 20260504171525 | 50 | 290 | 2.0 | 0.0 | 0.00 | 0.00 | 0.01 | 63 | 1004.5 |
| 20260504140116 | 51 | 259 | 4.0 | 0.0 | 0.00 | 0.00 | 0.00 | 60 | 1000.1 |
| 20260504120110 | 56 | 241 | 4.0 | 0.0 | 0.00 | 0.00 | 0.00 | 58 | 997.1 |
| 20260504081517 | 66 | 207 | 4.0 | 0.0 | 0.00 | 0.00 | 0.00 | 43 | 991.0 |
| 20260504070104 | 73 | 245 | 1.0 | 0.0 | 0.00 | 0.00 | 0.00 | 37 | 990.9 |
| 20260504060108 | 68 | 273 | 2.0 | 0.0 | 0.00 | 0.00 | 0.00 | 46 | 990.0 |
| 20260504050118 | 67 | 275 | 2.0 | 0.0 | 0.00 | 0.00 | 0.00 | 52 | 990.0 |
| 20260504044534 | 67 | 245 | 3.0 | 0.0 | 0.00 | 0.00 | 0.00 | 54 | 989.7 |
| 20260504043024 | 67 | 182 | 4.0 | 0.0 | 0.00 | 0.00 | 0.00 | 53 | 989.7 |
| 20260504041523 | 68 | 265 | 5.0 | 0.0 | 0.00 | 0.00 | 0.00 | 52 | 990.3 |
| 20260504034523 | 67 | 282 | 4.0 | 0.0 | 0.00 | 0.00 | 0.00 | 54 | 990.2 |
| 20260504033010 | 67 | 165 | 5.0 | 0.0 | 0.00 | 0.00 | 0.00 | 54 | 990.1 |
| 20260504030008 | 70 | 278 | 6.0 | 0.0 | 0.00 | 0.00 | 0.00 | 49 | 989.6 |
| 20260504024602 | 70 | 302 | 6.0 | 0.0 | 0.00 | 0.00 | 0.00 | 50 | 989.5 |
| 20260504023055 | 70 | 338 | 6.0 | 0.0 | 0.00 | 0.00 | 0.00 | 51 | 989.3 |
| 20260504021508 | 70 | 265 | 5.0 | 0.0 | 0.00 | 0.00 | 0.00 | 50 | 989.8 |
| 20260504020011 | 72 | 276 | 6.0 | 0.0 | 0.00 | 0.00 | 0.00 | 48 | 989.6 |
| 20260504014606 | 71 | 257 | 6.0 | 0.0 | 0.00 | 0.00 | 0.00 | 48 | 989.7 |
| 20260504013114 | 71 | 323 | 7.0 | 0.0 | 0.00 | 0.00 | 0.00 | 49 | 989.7 |
| 20260504011555 | 69 | 291 | 8.0 | 0.0 | 0.00 | 0.00 | 0.00 | 51 | 989.5 |
| 20260504010017 | 70 | 303 | 7.0 | 0.0 | 0.00 | 0.00 | 0.00 | 50 | 989.4 |
| 20260504004519 | 68 | 4 | 6.0 | 0.0 | 0.00 | 0.00 | 0.00 | 54 | 989.6 |
| 20260504003021 | 67 | 290 | 3.0 | 0.0 | 0.00 | 0.00 | 0.00 | 56 | 989.6 |
| 20260504001604 | 67 | 342 | 4.0 | 0.0 | 0.00 | 0.00 | 0.00 | 56 | 989.6 |
| 20260503234519 | 68 | 294 | 5.0 | 0.0 | 0.00 | 0.00 | 0.00 | 56 | 989.3 |
| 20260503231506 | 67 | 245 | 5.0 | 0.0 | 0.00 | 0.00 | 0.00 | 60 | 989.1 |
| 20260503230117 | 65 | 227 | 1.0 | 0.0 | 0.00 | 0.00 | 0.00 | 73 | 989.1 |
| 20260503224521 | 63 | 113 | 0.0 | 0.0 | 0.00 | 0.00 | 0.00 | 80 | 988.9 |
| 20260503223016 | 63 | 41 | 0.0 | 0.0 | 0.00 | 0.00 | 0.00 | 82 | 989.0 |
| 20260503221606 | 63 | 280 | 1.0 | 0.0 | 0.00 | 0.00 | 0.00 | 82 | 989.1 |
| 20260503220054 | 62 | 290 | 0.0 | 0.0 | 0.00 | 0.00 | 0.00 | 82 | 989.1 |